Location: Bartshausen
(51.8454°N, 9.8167°E)
Time: 11:05:52
(UTC+00:00)

Iridium 4 Rocket - Pass Details

Date: 19 February 2026
Orbit: 579 x 887 km, 86.9° (Epoch: 8 March)

Event Time Altitude Azimuth Distance (km) Brightness Sun altitude
Rises 17:25:47 0° 9° (N) 3,051 6.4 -7.4°
Reaches altitude 10° 17:29:20 10° 36° (NE) 2,061 5.3 -7.9°
Maximum altitude 17:31:30 13° 65° (ENE) 1,813 4.9 -8.2°
Enters shadow 17:33:22 11° 92° (E) 1,946 4.9 -8.5°
